{"data":{"norad_id":61614,"epoch":"2026-09-22T23:24:16.046208Z","epoch_age_seconds":83505,"freshness":"FRESH","line1":"1 61614U 24189A   26265.97518572  .00001813  00000+0  14662-3 0  9991","line2":"2 61614  97.5130 283.0441 0003148 103.0639 257.0937 15.00978284105154","mean_motion":15.00978284,"eccentricity":0.0003148,"inclination_deg":97.513,"raan_deg":283.0441,"arg_perigee_deg":103.0639,"mean_anomaly_deg":257.0937,"bstar":0.00014662,"rev_number":10515,"period_min":95.937430631075,"perigee_km":561.69298831702,"apogee_km":566.06368117177,"semimajor_km":6942.0153347444,"source":"CELESTRAK","updated_at":"2026-09-23T09:00:20.922810Z"}}